Location: Jetmore Motorplex
(37.9889°N, 99.8876°W)
Time: 09:26:20
(UTC+00:00)

CZ-4 R/B - Pass Details

Date: 17 February 2020
Orbit: 531 x 599 km, 97.8° (Epoch: 09 April)

Event Time Altitude Azimuth Distance (km) Brightness Sun altitude
Rises 01:32:15 0° 183° (S) 2,826 5.0 -15.0°
Reaches altitude 10° 01:34:30 10° 191° (S) 1,931 4.3 -15.5°
Maximum altitude 01:38:28 40° 261° (W) 882 2.9 -16.3°
Drops below altitude 10° 01:42:28 10° 332° (NNW) 1,942 4.4 -17.0°
Sets 01:44:45 0° 340° (NNW) 2,844 5.2 -17.5°
